WESTFORD NEEDLES, 2949

Orbit data source: Space-Track

WESTFORD NEEDLES, 2949 is space debris in LEO originally from a launch on Thu, 09 May 1963 UTC launched from the Air Force Western Test Range (AFWTR). Debris objects in space refer to the collection of defunct objects orbiting the Earth. Examples of debris include non-operational satellites, rocket bodies, and fragments generated from explosions, collisions, or faulty payload assembly.

Loading next visibility...
Identifier
2949, 1963-014AS
Orbit
LEO
Country
Flag of USUS
Related business
Manufacturer
Unknown
Mission
Spacecraft
Bus & Motor
Unknown
Mass
Unknown
Launch date (UTC)
1963-05-09 (63 years ago)
Launch vehicle
Unknown
Launch site
Air Force Western Test Range (AFWTR)
Object type
Payload
Rocket body
Debris
Shape & HBR
Unknown shape, 0.2 m
Radar Cross Section
Medium (>0.1 m² and <1 m²)

Expand to show TLE details & history
Last TLE update: 1 day ago

TLE from 1 day ago
0 WESTFORD NEEDLES
1 02949U 63014AS  25349.11101100  .00001550  00000-0  34288-1 0  9993
2 02949  85.5466  33.7179 2284697 301.4525  56.2264  8.85399510379516
Epoch: 2025-12-15T02:39Z
TLE epoch observation values (Epoch: 2025-12-15T02:39:51.350Z)
Latitude
22.61609°
Longitude
-88.40911°
Altitude
2,663.735 km
Speed
6.915 km/s
True Right ascension
02h 22m 16s
True Declination
22° 31' 12"
Sunlit
Object was in full shadow at epoch
Visualization orbit readout
Latitude
Unknown
Longitude
Unknown
Altitude
Unknown
Speed
Unknown
Apparent Right ascension
Unknown
Apparent Declination
Unknown
Sunlit
N/A
Visualization observer readout
Local Sidereal Time
09:40:53
Azimuth
Unknown
Elevation
Unknown
Doppler factor
Unknown
Orbital elements
Apogee altitude
5,743.722 km
Perigee altitude
1,234.897 km
Semi-major axis
9,867.447 km
Eccentricity
0.22847
Inclination
85.5466°
RAAN
33.7179°
Arg. of periapsis
301.4525°
True anomaly
81.22647°
Mean anomaly
56.2264°
Eccentric anomaly
68.39727°
Mean motion
2.2143 °/min
Orbital period
162.58 mins
BSTAR
0.034288
Loading maneuver chart data...
Computing Atmospheric mass density...
Loading historical data...
Loading historical data...
Loading historical data...
Loading historical data...
Loading historical data...
Loading historical data...
Loading historical data...

Documentation

Showing up to 5 results
|